Weather History for PAMR - February, 2012

Change the Weather History Date:

Wednesday, February 29, 2012

  Actual Average Record
Temperature  
Mean Temperature 11 °F -  
Max Temperature 19 °F 30 °F - (-1)
Min Temperature 3 °F 15 °F - (-1)
Degree Days  
Heating Degree Days 54    
Moisture  
Dew Point 10 °F    
Average Humidity 81    
Maximum Humidity 92    
Minimum Humidity 62    
Precipitation  
Precipitation 0.09 in - - ()
Sea Level Pressure  
Sea Level Pressure 29.60 in    
Wind  
Wind Speed 2 mph (North)    
Max Wind Speed 6 mph    
Max Gust Speed -    
Visibility 6 miles    
Events Snow    
Averages and records for this station are not official NWS values.
T = Trace of Precipitation, MM = Missing Value Source: NWS Daily Summary

Daily Weather History Graph

Daily Weather History Graph

Search for Another Location

Airport or City:

Trip Planner

Search our weather history database for the weather conditions in past years. The results will help you decide how hot, cold, wet, or windy it might be!

Date:

Astronomy

Feb. 29, 2012 Rise Set
Actual Time 8:01 AM AKST 6:23 PM AKST
Civil Twilight 7:17 AM AKST 7:07 PM AKST
Nautical Twilight 6:27 AM AKST 7:57 PM AKST
Astronomical Twilight 5:36 AM AKST 8:48 PM AKST
Moon 9:41 AM AKST (2/29) 3:35 AM AKST (2/29)
Length of Visible Light 11h 49m
Length of Day
10h 22m
Waxing Crescent, 48% of the Moon is Illuminated
Feb 29
Waxing Crescent
Feb 29
First Quarter
Mar 8
Full
Mar 14
Last Quarter
Mar 22
New

Hourly Weather History & Observations

Time (AKST) Temp. Windchill Dew Point Humidity Pressure Visibility Wind Dir Wind Speed Gust Speed Precip Events Conditions
12:53 AM 19.0 °F - 12.9 °F 77% 29.63 in 5.0 mi Calm Calm - 0.00 in Snow Light Snow
1:53 AM 19.0 °F 13.9 °F 12.9 °F 77% 29.61 in 4.0 mi North 3.5 mph - 0.00 in Snow Light Snow
2:08 AM 19.4 °F - 12.2 °F 74% 29.60 in 4.0 mi Calm Calm - 0.00 in Snow Light Snow
3:11 AM 19.4 °F - 14.0 °F 80% 29.60 in 5.0 mi Calm Calm - 0.00 in Snow Light Snow
3:35 AM 19.4 °F - 14.0 °F 80% 29.60 in 2.0 mi Calm Calm - 0.00 in Snow Light Snow
3:53 AM 19.0 °F - 15.1 °F 85% 29.61 in 1.5 mi Calm Calm - 0.01 in Snow Light Snow
4:53 AM 18.0 °F 11.1 °F 14.0 °F 84% 29.62 in 1.5 mi North 4.6 mph - 0.00 in Snow Light Snow
5:13 AM 17.6 °F 9.3 °F 12.2 °F 79% 29.60 in 1.0 mi North 5.8 mph - 0.02 in Snow Light Snow
5:53 AM 16.0 °F 8.8 °F 12.9 °F 88% 29.61 in 1.0 mi North 4.6 mph - 0.03 in Snow Light Snow
6:15 AM 15.8 °F 10.2 °F 12.2 °F 86% 29.60 in 1.0 mi North 3.5 mph - 0.01 in Snow Light Snow
6:50 AM 17.6 °F 10.7 °F 12.2 °F 79% 29.59 in 1.0 mi North 4.6 mph - 0.03 in Snow Light Snow
6:53 AM 17.1 °F 10.0 °F 12.9 °F 84% 29.60 in 1.0 mi NNE 4.6 mph - 0.03 in Snow Light Snow
7:00 AM 17.6 °F 12.3 °F 12.2 °F 79% 29.59 in 1.0 mi North 3.5 mph - 0.00 in Snow Light Snow
7:38 AM 17.6 °F 10.7 °F 14.0 °F 86% 29.58 in 1.5 mi North 4.6 mph - 0.02 in Snow Light Snow
7:53 AM 17.1 °F 8.7 °F 12.9 °F 84% 29.59 in 1.5 mi NNW 5.8 mph - 0.02 in Snow Light Snow
8:53 AM 16.0 °F 10.4 °F 12.0 °F 84% 29.58 in 1.5 mi North 3.5 mph - 0.00 in Snow Light Snow
8:58 AM 15.8 °F - 12.2 °F 86% 29.57 in 2.0 mi Calm Calm - 0.00 in Snow Light Snow
9:53 AM 16.0 °F 8.8 °F 10.9 °F 81% 29.59 in 5.0 mi North 4.6 mph - 0.00 in Snow Light Snow
10:53 AM 16.0 °F 8.8 °F 12.0 °F 84% 29.59 in 10.0 mi North 4.6 mph - 0.00 in   Overcast
11:53 AM 19.0 °F - 12.0 °F 74% 29.60 in 10.0 mi Calm Calm - N/A   Mostly Cloudy
12:53 PM 18.0 °F 12.7 °F 10.0 °F 71% 29.60 in 10.0 mi North 3.5 mph - N/A   Mostly Cloudy
1:53 PM 19.9 °F 14.9 °F 9.0 °F 62% 29.60 in 10.0 mi North 3.5 mph - N/A   Mostly Cloudy
2:53 PM 19.9 °F 13.4 °F 10.9 °F 68% 29.60 in 10.0 mi North 4.6 mph - N/A   Mostly Cloudy
3:53 PM 19.9 °F 14.9 °F 10.9 °F 68% 29.60 in 10.0 mi North 3.5 mph - N/A   Overcast
4:53 PM 18.0 °F - 10.0 °F 71% 29.60 in 10.0 mi Calm Calm - N/A   Mostly Cloudy
5:53 PM 12.9 °F - 9.0 °F 84% 29.58 in 10.0 mi Calm Calm - N/A   Scattered Clouds
6:53 PM 10.9 °F - 8.1 °F 88% 29.61 in 10.0 mi Calm Calm - N/A   Scattered Clouds
7:53 PM 7.0 °F - 5.0 °F 92% 29.62 in 10.0 mi Calm Calm - N/A   Scattered Clouds
8:53 PM 5.0 °F - 1.9 °F 87% 29.62 in 10.0 mi Calm Calm - N/A   Clear
9:53 PM 6.1 °F - 3.0 °F 87% 29.63 in 10.0 mi Calm Calm - N/A   Partly Cloudy
10:53 PM 3.9 °F - -0.0 °F 84% 29.62 in 10.0 mi Calm Calm - N/A   Clear
11:53 PM 5.0 °F -2.1 °F 1.0 °F 84% 29.62 in 10.0 mi East 3.5 mph - N/A   Clear